DW2380 Paimio FI current weather conditions

sailwx.info

Wind from 360

Air temperature 6.7° C
Dewpoint 5.9° C

Last reported at 2015-Aug-04 02:53 UTC.
Time now 2015-Aug-04 03:21 UTC

Location: N 60°28' E 022°40'.
View on Google Maps.

See reports from other nearby stations

  
Tides and Currents Weather Stations Pressure Air Temp Water Temp Dewpoint Dewpoint Depression Visibility Wind Speed Wind Dir Waves Ship Positions
date/time (UTC)wind fromknots sea level pressurealtimeterstation pressurevisibilityair tempwater tempwave heightnotes
2015-Aug-04 02:53 360 6.7
2015-Aug-04 02:38 360 7.2
2015-Aug-04 02:23 360 7.2
2015-Aug-04 02:08 360 7.2
2015-Aug-04 01:53 360 7.8
2015-Aug-04 01:38 360 7.8
2015-Aug-04 01:23 360 8.3
2015-Aug-04 01:08 360 8.3
2015-Aug-04 00:53 360 8.3
2015-Aug-04 00:38 360 8.3
2015-Aug-04 00:23 360 7.8
2015-Aug-04 00:08 360 7.8
2015-Aug-03 23:53 360 8.3
2015-Aug-03 23:38 360 7.8
2015-Aug-03 23:23 360 7.8
2015-Aug-03 23:08 360 8.3
2015-Aug-03 22:53 360 8.3
2015-Aug-03 22:37 360 8.9
2015-Aug-03 22:22 360 8.9
2015-Aug-03 22:07 360 9.4
2015-Aug-03 21:52 360 9.4
2015-Aug-03 21:37 360 10.0
2015-Aug-03 21:22 360 10.6
2015-Aug-03 21:07 360 11.1
2015-Aug-03 20:52 360 10.6
2015-Aug-03 20:37 360 11.1
2015-Aug-03 20:22 360 10.6
2015-Aug-03 20:07 360 10.6
2015-Aug-03 19:51 360 11.1
2015-Aug-03 19:36 360 11.7
2015-Aug-03 19:21 360 11.7
2015-Aug-03 19:07 360 12.8
2015-Aug-03 18:51 360 2 gusting 5 13.3
2015-Aug-03 18:36 360 1 gusting 6 13.9
2015-Aug-03 18:21 360 3 gusting 5 13.9
2015-Aug-03 18:07 360 1 gusting 5 14.4
2015-Aug-03 17:51 360 2 gusting 6 15.0
2015-Aug-03 17:37 360 4 gusting 7 15.0
2015-Aug-03 17:21 360 5 gusting 7 15.6
2015-Aug-03 17:06 360 5 gusting 9 16.1
2015-Aug-03 16:49 360 6 gusting 11 17.2
2015-Aug-03 16:34 360 6 gusting 11 17.8
2015-Aug-03 16:20 360 3 gusting 10 18.3
2015-Aug-03 16:05 360 5 gusting 11 18.3
2015-Aug-03 15:49 360 1 gusting 10 18.9
2015-Aug-03 15:34 360 6 gusting 12 18.9
2015-Aug-03 15:18 360 5 gusting 8 19.4
2015-Aug-03 15:03 360 5 gusting 10 18.9
2015-Aug-03 14:48 360 6 gusting 12 18.3
2015-Aug-03 14:34 360 5 gusting 13 19.4
2015-Aug-03 14:19 360 6 gusting 13 19.4
2015-Aug-03 14:03 360 7 gusting 12 19.4
2015-Aug-03 13:48 360 6 gusting 13 19.4
2015-Aug-03 13:33 360 6 gusting 12 20.0
2015-Aug-03 13:18 360 5 gusting 13 20.0
2015-Aug-03 13:03 360 7 gusting 14 20.0
2015-Aug-03 12:47 360 6 gusting 14 20.0
2015-Aug-03 12:33 360 6 gusting 13 20.0
2015-Aug-03 12:18 360 6 gusting 15 19.4
2015-Aug-03 12:03 360 6 gusting 13 20.0
2015-Aug-03 11:47 360 8 gusting 13 20.6
2015-Aug-03 11:16 360 7 gusting 13 20.6
2015-Aug-03 11:01 360 7 gusting 12 20.6
2015-Aug-03 10:46 360 6 gusting 13 20.0
2015-Aug-03 10:31 360 8 gusting 13 18.9
2015-Aug-03 10:16 360 6 gusting 12 20.0
2015-Aug-03 10:01 360 4 gusting 10 20.0
2015-Aug-03 09:46 360 4 gusting 10 19.4
2015-Aug-03 09:31 360 4 gusting 11 18.9
2015-Aug-03 09:16 360 5 gusting 13 18.9
2015-Aug-03 09:01 360 4 gusting 10 18.9
2015-Aug-03 08:44 360 4 gusting 10 17.8
2015-Aug-03 08:29 360 1 gusting 7 17.8
2015-Aug-03 08:14 360 6 gusting 9 17.8
2015-Aug-03 07:59 360 5 gusting 8 17.2
2015-Aug-03 07:44 360 4 gusting 11 16.7
2015-Aug-03 07:29 360 4 gusting 11 16.7
2015-Aug-03 07:13 360 5 gusting 13 16.1
2015-Aug-03 06:58 360 5 gusting 13 16.1
2015-Aug-03 06:43 360 4 gusting 8 15.6
2015-Aug-03 06:14 360 6 gusting 10 15.0
2015-Aug-03 05:57 360 6 gusting 8 15.0
2015-Aug-03 05:43 360 2 gusting 6 14.4
2015-Aug-03 05:28 360 3 gusting 7 13.9
2015-Aug-03 05:12 360 2 gusting 6 12.8
2015-Aug-03 04:58 360 12.2
2015-Aug-03 04:42 360 11.7
2015-Aug-03 04:27 360 10.6
2015-Aug-03 04:11 360 10.0
2015-Aug-03 03:56 360 8.3
2015-Aug-03 03:41 360 7.8
2015-Aug-03 03:27 360 7.2
2015-Aug-03 03:11 360 7.2
2015-Aug-03 02:56 360 6.7
2015-Aug-03 02:41 360 6.7
2015-Aug-03 02:26 360 6.7
2015-Aug-03 02:11 360 7.2
2015-Aug-03 01:56 360 7.2
2015-Aug-03 01:41 360 7.2
2015-Aug-03 01:26 360 7.8
2015-Aug-03 01:11 360 7.8
2015-Aug-03 00:56 360 8.3
2015-Aug-03 00:41 360 7.8
2015-Aug-03 00:26 360 7.8
2015-Aug-03 00:11 360 7.8
2015-Aug-02 23:56 360 7.8
2015-Aug-02 23:41 360 7.8
2015-Aug-02 23:26 360 7.8
2015-Aug-02 23:11 360 7.8
2015-Aug-02 22:56 360 7.8
2015-Aug-02 22:41 360 7.8
2015-Aug-02 22:26 360 7.8
2015-Aug-02 22:11 360 7.8
2015-Aug-02 21:56 360 7.8
2015-Aug-02 21:41 360 8.3
2015-Aug-02 21:26 360 8.3
2015-Aug-02 21:11 360 7.8
2015-Aug-02 20:57 360 8.3
2015-Aug-02 20:42 360 8.9
2015-Aug-02 20:27 360 8.9
2015-Aug-02 20:11 360 9.4
2015-Aug-02 19:55 360 10.0
2015-Aug-02 19:40 360 0 gusting 2 10.0
2015-Aug-02 19:25 360 0 gusting 2 10.6
2015-Aug-02 19:10 360 0 gusting 3 11.1
2015-Aug-02 18:54 360 0 gusting 4 11.7
2015-Aug-02 18:39 360 1 gusting 6 12.2
2015-Aug-02 18:24 360 5 gusting 13 12.8
2015-Aug-02 18:08 360 10 gusting 18 13.9
2015-Aug-02 17:53 360 4 gusting 7 15.0
2015-Aug-02 17:38 360 6 gusting 12 15.0
2015-Aug-02 17:24 360 6 gusting 12 15.0
2015-Aug-02 17:08 360 5 gusting 13 15.6
2015-Aug-02 16:53 360 6 gusting 15 16.1
2015-Aug-02 16:38 360 8 gusting 14 16.1
2015-Aug-02 16:23 360 6 gusting 12 16.7
2015-Aug-02 16:08 360 6 gusting 13 16.1
2015-Aug-02 15:53 360 9 gusting 14 17.2
2015-Aug-02 15:38 360 3 gusting 10 17.2
2015-Aug-02 15:22 360 6 gusting 13 18.3
2015-Aug-02 15:07 360 7 gusting 14 17.8
2015-Aug-02 14:52 360 6 gusting 13 18.3
2015-Aug-02 14:37 360 6 gusting 10 17.8
2015-Aug-02 14:22 360 5 gusting 11 18.3
2015-Aug-02 14:07 360 6 gusting 11 18.9
2015-Aug-02 13:52 360 6 gusting 11 18.9
2015-Aug-02 13:37 360 7 gusting 13 19.4
2015-Aug-02 13:21 360 6 gusting 12 18.9
2015-Aug-02 13:06 360 5 gusting 10 18.3
2015-Aug-02 12:52 360 5 gusting 13 17.8
2015-Aug-02 12:37 360 4 gusting 13 17.8
2015-Aug-02 12:22 360 8 gusting 13 17.8
2015-Aug-02 12:07 360 9 gusting 13 18.9
2015-Aug-02 11:51 360 6 gusting 13 18.9
2015-Aug-02 11:37 360 6 gusting 12 18.9
2015-Aug-02 11:20 360 6 gusting 16 20.6
2015-Aug-02 11:04 360 7 gusting 13 20.0
2015-Aug-02 10:49 360 7 gusting 14 20.0
2015-Aug-02 10:34 360 10 gusting 16 20.0
2015-Aug-02 10:19 360 8 gusting 16 19.4
2015-Aug-02 10:04 360 7 gusting 13 18.9
2015-Aug-02 09:49 360 6 gusting 13 18.3
2015-Aug-02 09:34 360 6 gusting 14 18.9
2015-Aug-02 09:18 360 8 gusting 12 18.3
2015-Aug-02 09:03 360 5 gusting 14 17.8
2015-Aug-02 08:48 360 8 gusting 13 17.8
2015-Aug-02 08:33 360 6 gusting 15 17.8
2015-Aug-02 08:17 360 9 gusting 14 17.8
2015-Aug-02 08:02 360 6 gusting 16 17.8
2015-Aug-02 07:48 360 6 gusting 10 17.8
2015-Aug-02 07:33 360 6 gusting 13 17.2
2015-Aug-02 07:17 360 4 gusting 12 16.7
2015-Aug-02 07:02 360 4 gusting 10 16.7
2015-Aug-02 06:47 360 4 gusting 9 16.7
2015-Aug-02 06:32 360 5 gusting 10 16.1
2015-Aug-02 06:16 360 3 gusting 8 16.1
2015-Aug-02 06:01 360 4 gusting 8 16.1
2015-Aug-02 05:47 360 5 gusting 7 16.1
2015-Aug-02 05:31 360 2 gusting 5 16.7
2015-Aug-02 05:16 360 3 gusting 6 15.6
2015-Aug-02 05:02 360 2 gusting 6 15.0
2015-Aug-02 04:45 360 0 gusting 3 13.3
2015-Aug-02 04:30 360 11.7
2015-Aug-02 04:15 360 10.6
2015-Aug-02 04:00 360 9.4
2015-Aug-02 03:45 360 7.8
2015-Aug-02 03:30 360 7.2
2015-Aug-02 03:15 360 6.1
2015-Aug-02 03:00 360 6.1